GFSWCAN_2pvu_pres_000.txt.gz
Presure
196 211 200 188 178 185 179 186 189 178 183 188 191 159 191 186 175 187 175 171 195 193 196 195 184 186 190 191 195 187 145 196 192 184 186 184 177 188 191 185 173 173 176 181 185 194 195 191 188 119 102 225 221 211
195 189 207 194 190 190 183 179 180 174 199 192 178 202 204 177 201 174 192 199 201 185 183 188 197 190 187 190 186 188 183 180 175 186 185 178 185 175 174 102 175 175 133 193 195 190 122 130 71 219 215 216 215 195
207 195 188 202 199 187 194 191 184 181 178 179 205 196 182 193 192 194 181 172 171 192 191 193 198 184 184 183 181 174 184 181 185 181 186 178 182 178 185 188 187 192 187 125 124 193 103 203 137 204 207 206 192 219
209 204 194 201 191 202 193 196 197 202 191 184 181 201 184 174 191 183 194 191 183 175 188 188 170 178 177 184 188 191 188 190 192 187 170 188 183 191 181 191 188 115 127 105 173 153 127 132 131 147 167 211 210 206
219 219 198 203 196 196 202 193 197 198 209 183 189 181 194 187 188 186 183 181 188 187 188 192 190 189 190 191 188 185 191 173 184 186 192 145 191 200 204 176 175 96 165 220 92 201 108 202 124 130 146 172 216 220
198 205 207 213 193 190 198 194 201 198 193 193 188 200 204 187 188 190 188 185 184 180 184 185 180 182 189 197 199 196 191 194 195 188 202 195 109 203 104 198 196 199 199 183 60 95 204 207 119 132 133 221 216 222
208 211 213 211 224 200 190 203 201 194 207 198 202 194 205 206 200 201 197 188 197 193 193 192 187 179 180 189 192 200 194 193 206 200 200 202 181 112 108 187 120 150 140 199 201 200 150 213 147 139 133 215 221 232
218 218 214 213 219 217 215 199 194 202 206 205 198 203 203 195 203 205 197 186 200 190 191 174 201 194 203 202 208 207 203 200 196 195 174 148 194 191 209 91 210 208 204 199 192 159 212 207 217 215 214 216 234 224
215 221 236 221 214 217 211 209 220 209 200 199 206 209 207 197 200 197 208 207 207 210 202 188 204 176 188 191 191 190 171 171 204 193 203 104 88 112 208 156 211 198 207 213 216 152 228 199 226 226 225 225 212 240
210 219 218 230 229 205 204 225 215 227 223 216 204 210 210 205 208 205 196 200 189 203 201 196 194 202 205 201 201 197 201 207 210 88 177 197 195 203 95 207 212 214 147 225 226 214 214 218 223 224 222 237 276 270
228 212 230 221 220 219 219 219 222 215 217 214 216 215 212 207 203 210 209 210 214 210 209 203 199 205 204 206 208 209 210 213 211 207 210 209 209 214 155 213 220 231 226 227 219 228 236 236 235 248 276 276 272 310
234 244 245 214 220 209 224 206 211 208 222 216 208 212 215 211 216 220 221 216 207 203 205 204 206 209 207 203 192 212 218 217 202 204 213 200 218 225 232 237 224 214 226 251 239 236 246 263 275 272 296 322 311 324
240 254 243 235 228 238 239 229 226 226 227 224 220 224 214 220 222 214 211 209 212 217 215 212 217 212 203 222 217 216 222 220 224 202 230 229 229 228 238 224 228 245 261 252 250 281 277 268 281 304 320 331 287 284
279 244 214 237 242 254 254 244 228 229 222 225 220 214 224 224 215 229 188 231 227 222 221 224 228 226 221 206 217 219 220 223 225 221 225 231 233 238 231 238 255 283 280 278 274 277 290 310 323 272 278 290 429 436
251 271 237 261 244 256 256 253 248 242 238 245 243 217 232 214 221 212 215 212 132 209 215 221 213 225 226 226 220 215 210 225 229 233 240 242 256 248 269 271 283 294 298 287 283 300 328 337 290 286 350 422 416 405
296 314 242 242 242 241 283 246 254 258 242 244 249 242 241 251 237 237 234 224 215 216 208 219 230 230 228 219 227 224 239 235 264 284 273 268 271 276 284 299 319 284 297 288 322 331 286 283 383 425 412 399 413 465
274 273 301 343 351 340 250 336 282 261 256 252 240 249 234 245 254 255 251 245 246 246 244 236 234 235 237 236 238 252 264 279 258 255 270 266 300 297 295 283 306 302 323 329 278 286 425 421 407 397 468 459 506 505
290 279 276 288 315 326 335 332 339 313 314 251 315 296 326 327 320 321 317 317 306 298 300 267 269 268 265 269 257 283 277 277 283 332 333 327 322 323 327 320 319 302 281 318 419 411 407 390 410 419 394 503 490 468
304 290 283 277 275 271 262 262 260 281 309 311 321 313 314 285 311 290 313 311 313 326 325 312 314 319 312 325 328 333 328 324 217 323 320 318 299 291 299 291 296 410 412 409 397 392 380 428 389 381 448 456 432 390
314 305 304 290 288 275 272 277 287 308 307 317 316 318 320 324 326 328 329 329 331 334 336 267 309 323 328 323 318 313 309 304 304 300 290 277 280 371 385 399 401 401 393 385 386 446 396 369 372 374 402 386 363 352
168 316 313 305 294 286 282 276 278 282 284 277 278 279 276 295 300 304 124 315 317 312 305 288 294 101 296 293 286 274 273 125 386 407 410 406 396 395 397 389 385 384 451 445 409 369 356 372 369 369 359 349 346 337
313 312 310 314 314 313 309 301 294 285 282 282 282 285 283 279 278 279 282 257 271 262 270 194 244 176 284 320 326 395 392 396 396 393 390 387 387 382 381 401 441 425 397 368 356 353 342 362 363 356 349 346 347 349
384 370 367 353 326 321 322 315 314 315 315 314 315 317 213 120 130 319 323 265 351 382 378 185 401 399 395 390 391 391 392 393 387 378 374 375 408 437 426 406 380 360 348 351 342 335 332 334 344 339 336 338 343 344
384 391 391 392 393 391 387 381 216 382 386 186 174 127 381 383 387 395 398 399 377 373 380 383 386 387 386 387 389 386 383 376 365 396 431 430 420 398 377 357 347 347 346 335 329 329 335 333 342 338 332 331 332 336
356 365 363 365 365 368 366 363 131 310 366 370 376 374 382 371 297 146 178 364 365 378 383 376 374 379 379 376 370 354 374 419 424 405 402 395 376 352 341 342 343 345 348 363 379 374 358 348 347 349 339 335 336 336
365 369 363 363 364 366 367 366 365 372 375 374 370 369 369 376 389 389 363 362 365 366 366 368 365 361 352 363 392 410 410 383 392 393 373 357 345 339 336 347 348 367 377 379 370 366 365 368 365 351 343 333 330 326
342 332 334 341 347 349 356 360 363 361 356 355 356 362 367 370 359 346 349 352 350 348 347 350 343 378 393 403 383 365 383 407 386 358 345 345 347 342 336 340 343 341 339 338 339 338 336 332 328 326 324 313 308 309
333 336 337 343 347 350 346 341 337 335 336 346 350 362 341 384 409 383 389 387 379 372 350 381 384 383 367 361 367 374 374 368 358 351 397 391 357 340 341 344 337 331 325 321 309 300 293 316 317 317 315 311 305 302
335 335 336 337 334 336 367 356 358 365 370 377 375 378 384 391 390 393 399 409 411 404 392 375 357 353 346 362 370 373 377 383 393 393 364 341 340 342 333 325 321 311 298 290 317 323 318 309 299 303 314 323 336 352
349 356 363 369 371 378 374 370 394 390 390 390 388 390 385 370 371 382 382 369 368 359 350 352 362 365 357 360 364 371 349 339 332 332 332 326 319 319 320 303 287 301 333 331 320 302 304 323 342 352 347 319 303 303
347 350 349 344 346 348 353 358 362 367 375 376 383 385 368 366 372 376 371 357 355 351 362 346 337 337 337 335 334 336 336 331 322 312 315 321 325 297 293 316 332 326 320 312 306 323 340 339 310 301 303 304 304 306
335 333 333 332 333 337 339 343 349 354 360 366 362 366 368 372 376 368 345 356 363 359 335 328 327 325 326 326 324 320 321 322 322 314 297 309 318 325 331 325 325 318 315 328 333 319 307 306 306 305 304 302 303 305
349 355 362 369 373 382 388 398 408 408 349 350 361 369 370 376 374 369 355 345 337 331 329 326 325 326 318 302 324 320 298 302 320 332 334 331 327 328 330 326 326 319 306 302 304 305 302 297 296 299 304 307 313 320

GFSWCAN_2pvu_pres_006.txt.gz
Presure
207 190 211 200 201 195 183 195 188 193 195 202 219 200 195 189 185 187 189 192 191 192 192 189 188 191 199 189 198 186 198 201 196 158 171 186 186 179 166 185 193 176 182 183 126 189 185 196 197 137 200 199 197 164
214 224 210 202 193 193 196 194 187 196 187 200 203 192 191 202 200 197 192 195 204 208 198 191 190 183 180 169 198 180 170 186 203 173 180 199 191 186 187 187 188 184 195 191 189 178 195 199 195 196 94 185 201 197
199 224 208 209 198 191 195 193 175 195 186 187 198 201 203 199 200 198 195 201 199 194 198 199 201 172 197 169 188 172 181 180 161 177 178 187 191 191 194 165 183 173 188 198 191 192 200 134 192 149 194 93 191 209
214 202 210 196 195 202 193 198 196 172 194 194 176 183 195 191 184 190 190 194 193 190 191 185 193 193 167 179 166 195 187 187 180 170 190 185 184 187 185 172 180 189 191 195 146 179 145 169 136 99 176 197 193 194
217 208 213 204 206 192 205 191 193 200 193 183 199 182 192 189 190 189 176 170 172 192 166 171 179 192 172 181 186 190 195 191 193 180 185 195 193 191 185 191 161 145 164 200 120 188 102 201 162 143 107 198 197 204
208 214 211 192 210 206 191 208 198 204 195 198 199 182 182 190 184 184 188 185 185 200 178 192 178 179 183 185 189 204 205 129 190 188 182 198 103 201 203 199 194 207 198 85 92 193 92 183 201 201 200 202 202 209
222 214 214 210 196 205 203 202 202 202 206 193 193 188 193 192 198 186 196 182 176 191 190 165 174 190 192 192 175 123 196 199 194 186 185 186 196 194 193 119 190 174 84 199 197 205 208 201 200 204 209 209 225 226
191 212 214 215 211 203 203 203 202 195 196 200 192 193 195 193 178 178 188 192 193 196 196 198 113 148 186 193 189 187 195 206 201 201 206 201 200 198 192 192 139 113 196 201 200 201 209 207 214 207 214 225 220 217
245 225 222 221 215 210 215 205 196 200 198 201 203 212 205 196 194 206 200 201 202 189 190 193 93 190 187 189 199 197 197 197 209 208 140 200 201 129 196 173 86 203 209 210 211 205 224 226 201 221 216 217 235 240
244 208 223 224 225 225 209 205 210 211 193 210 201 206 203 201 189 202 202 200 198 202 201 192 188 186 189 196 194 197 200 198 200 193 144 188 183 191 208 211 212 215 205 213 203 201 207 216 222 223 235 256 252 324
243 236 236 216 226 245 227 222 208 213 204 203 202 204 207 199 198 201 211 202 201 201 204 205 200 199 201 198 199 201 201 199 202 199 202 204 207 199 203 206 209 198 217 224 229 230 223 233 260 241 249 257 313 328
239 248 245 230 231 235 238 230 223 215 212 210 207 212 206 204 208 203 199 200 201 199 200 199 201 202 204 202 201 202 201 202 209 218 212 215 210 213 227 222 224 228 219 224 222 249 248 247 258 253 276 275 342 347
251 227 233 234 238 239 228 240 253 217 214 216 214 169 211 209 213 216 205 208 213 201 202 206 207 208 204 211 223 215 215 216 223 222 230 231 200 215 212 232 228 214 237 247 243 240 305 308 279 291 284 257 323 286
240 239 244 235 254 251 257 229 248 259 228 224 213 211 216 212 209 210 215 214 214 211 213 212 210 212 216 215 214 218 205 224 228 215 209 211 227 233 221 217 250 244 253 239 254 272 327 343 270 259 325 295 271 311
262 245 235 237 240 233 241 247 244 243 248 244 242 234 232 229 231 222 212 212 218 222 225 220 218 218 219 221 224 225 228 231 242 238 223 238 246 238 243 246 248 253 242 261 313 302 267 273 323 295 283 301 332 431
317 277 256 249 245 243 241 236 248 241 244 239 242 233 213 241 239 239 235 230 222 222 224 225 227 227 230 213 232 234 234 241 250 247 246 249 256 224 251 268 277 259 343 291 265 285 328 305 298 309 325 422 420 404
299 294 283 278 257 252 248 245 258 270 269 255 250 235 241 225 225 228 240 240 239 228 225 229 219 222 225 238 228 231 239 250 253 223 258 266 275 280 262 257 257 332 205 334 311 288 292 315 327 415 424 413 391 440
384 354 294 283 282 303 296 278 278 274 273 270 273 271 246 246 250 254 257 241 232 236 238 238 240 241 213 236 256 266 273 267 237 264 258 253 286 342 344 337 321 269 309 314 300 313 332 408 417 414 406 387 431 407
351 377 336 308 295 293 302 265 278 279 267 262 265 267 271 254 245 256 256 258 254 256 258 271 266 265 240 249 253 243 248 248 348 316 316 291 262 271 266 295 314 300 305 304 324 410 409 407 401 395 404 426 393 365
342 355 384 385 333 301 214 286 276 272 275 276 275 271 268 268 256 254 253 258 265 266 261 255 261 264 260 248 181 128 255 255 282 274 269 279 287 285 285 290 294 309 356 402 399 398 396 386 386 425 409 388 361 347
363 364 384 386 391 367 347 346 245 288 272 269 270 269 266 267 261 263 260 257 264 254 269 272 255 92 251 260 271 303 295 281 290 273 289 292 296 298 298 313 405 400 396 394 392 383 372 422 409 388 364 349 344 336
338 346 252 362 384 386 379 335 324 336 319 314 300 290 286 287 288 288 288 297 330 309 312 307 284 317 309 301 301 304 302 298 296 303 307 307 322 412 407 399 398 393 384 374 385 420 408 386 362 349 345 339 357 387
362 358 367 374 378 381 377 364 344 335 338 319 319 321 321 318 315 313 313 323 317 320 210 221 317 317 316 314 314 315 314 317 324 327 370 408 407 404 395 382 380 371 392 413 414 403 365 347 338 342 336 362 355 350
380 363 368 373 384 381 380 368 358 339 329 321 319 313 310 310 312 308 302 168 301 303 308 315 320 322 315 318 324 325 395 406 407 406 406 404 386 378 372 370 392 404 405 426 402 351 339 339 339 334 338 338 337 334
400 393 388 376 371 364 364 370 371 375 343 117 222 137 150 129 317 302 301 298 291 141 270 322 331 343 412 410 406 405 403 401 399 399 383 377 371 367 358 395 387 405 412 396 359 344 349 340 338 336 331 327 320 298
347 348 342 342 351 353 354 358 363 362 361 257 352 343 344 345 343 341 354 355 357 396 395 398 400 402 401 397 389 383 379 378 377 365 357 358 371 369 393 396 393 388 397 381 411 376 343 343 333 326 320 303 285 302
355 352 359 362 304 208 375 376 376 377 380 383 384 387 390 390 390 380 380 383 382 386 390 389 382 371 366 369 403 406 423 424 414 396 382 344 381 391 365 393 391 391 392 374 349 345 334 325 325 311 284 311 331 323
334 334 314 345 349 359 352 365 366 371 367 371 366 365 366 368 366 360 357 359 362 365 374 383 391 385 378 386 372 384 409 406 404 402 383 387 374 375 381 376 361 348 335 339 329 316 323 325 280 303 331 323 323 318
335 347 357 359 363 363 363 355 349 346 352 353 355 355 364 369 376 383 384 387 391 395 402 408 410 407 401 397 398 400 402 396 383 373 363 366 356 355 346 337 334 336 319 312 322 319 289 334 329 323 320 316 316 307
349 350 347 340 336 335 339 344 350 360 370 369 365 348 338 336 343 346 346 345 346 349 356 364 372 390 400 393 389 385 380 367 356 358 356 340 338 336 334 329 319 324 310 286 337 335 325 319 311 304 300 294 292 301
323 329 332 335 341 350 362 352 331 328 352 364 366 373 374 377 384 391 391 388 385 382 374 368 375 380 373 378 381 382 370 357 358 355 336 329 325 323 295 328 312 322 342 337 323 314 302 296 293 296 302 303 307 312
334 334 350 363 337 329 336 352 342 339 338 340 339 340 342 351 361 436 455 459 430 407 399 393 376 383 385 388 387 370 369 363 348 332 326 323 282 328 308 326 337 339 324 312 296 294 296 295 293 297 301 305 309 313
362 351 322 323 337 338 340 331 326 317 322 325 322 323 329 332 341 353 484 496 503 508 427 408 387 394 397 395 385 360 339 334 329 327 309 298 312 326 331 331 333 311 293 294 297 297 293 295 299 302 305 309 314 316

GFSWCAN_2pvu_pres_009.txt.gz
Presure
218 200 213 192 205 192 193 196 202 192 205 199 203 214 201 211 237 220 217 205 198 206 214 209 191 186 188 188 189 183 183 189 198 175 169 170 180 186 180 169 178 177 187 188 185 181 182 172 187 192 195 198 198 121
205 220 207 203 190 171 202 189 195 197 189 163 230 192 215 194 196 216 217 212 215 210 192 183 185 189 187 182 193 164 198 194 169 197 197 206 179 177 174 164 161 180 187 176 192 187 189 193 196 198 191 192 191 183
223 210 217 213 203 196 201 190 194 193 203 184 202 197 205 218 223 193 193 212 214 212 207 190 192 190 192 198 194 194 185 199 191 187 177 178 187 203 183 178 178 182 194 189 177 194 187 175 195 188 177 187 194 199
225 212 212 212 205 207 208 194 197 193 198 194 190 196 201 199 197 216 201 207 200 201 200 196 196 194 195 196 198 189 177 201 198 170 184 181 182 186 175 193 179 152 186 196 193 200 199 199 192 113 191 194 198 199
217 211 211 220 209 202 204 208 193 190 200 193 193 196 181 198 191 205 197 199 194 189 197 198 198 198 196 194 190 185 178 183 176 180 180 187 190 187 180 100 192 198 194 195 73 194 194 197 187 183 193 201 191 204
224 217 208 216 207 215 202 204 201 213 204 198 193 192 173 176 191 195 190 187 172 181 196 192 191 187 187 182 173 158 180 179 180 188 178 198 195 200 195 195 188 199 138 176 199 194 192 191 192 204 208 206 203 218
226 217 210 210 209 210 215 199 202 205 213 201 184 195 193 200 197 173 183 188 184 192 191 189 186 182 182 181 187 193 195 196 192 196 194 187 195 200 197 194 193 191 190 174 187 138 199 204 199 211 206 206 227 224
239 235 227 210 214 223 202 202 214 204 211 192 203 204 184 197 197 194 194 191 190 193 195 190 193 190 191 140 197 199 197 193 194 192 189 197 154 198 184 190 200 139 172 199 192 195 199 210 210 208 219 229 221 242
217 256 226 217 223 216 215 208 196 222 204 213 207 201 194 204 199 190 188 196 204 199 196 195 194 91 169 151 194 197 201 200 202 207 192 197 124 201 198 199 206 203 193 192 190 207 203 205 222 225 234 211 256 267
252 233 251 221 222 219 217 217 208 196 216 205 201 203 206 207 208 202 200 204 211 199 198 197 195 197 191 193 199 201 202 200 198 199 198 198 199 197 192 205 192 192 192 203 209 213 220 226 239 222 252 272 228 275
264 254 226 231 235 235 219 214 217 210 209 212 209 194 200 207 203 203 199 199 200 197 198 195 199 198 208 195 199 203 203 205 206 205 198 196 163 202 176 199 195 208 213 220 221 222 239 236 227 258 267 265 270 296
233 266 251 236 229 230 228 225 212 206 203 201 205 212 207 201 202 205 202 205 196 193 194 196 197 190 191 199 205 198 195 196 190 190 204 191 200 169 211 214 211 213 218 232 240 232 239 254 269 256 248 306 318 346
237 245 254 256 234 244 232 222 225 220 217 216 215 210 213 220 204 212 197 211 209 208 214 200 199 202 199 201 208 208 204 208 213 216 217 208 211 213 216 226 236 237 238 239 238 237 259 251 268 262 292 275 264 280
246 227 259 250 256 241 233 238 238 233 223 219 218 219 218 217 220 216 218 212 209 206 206 207 210 210 211 208 211 208 203 212 215 216 217 216 215 216 225 231 235 241 218 239 252 267 252 238 265 253 250 279 288 284
301 263 230 235 262 253 251 243 228 227 229 233 239 220 218 221 221 222 222 236 236 227 221 218 214 205 208 217 216 216 217 221 226 232 238 231 241 221 240 231 229 248 267 272 271 253 157 253 270 276 274 286 301 312
302 312 273 254 238 232 239 252 251 249 237 238 233 232 235 231 234 231 231 230 227 222 227 232 238 228 225 221 220 223 236 244 234 243 250 244 234 237 250 249 265 271 269 269 265 261 267 271 266 290 302 314 392 425
370 304 298 298 261 250 243 257 261 263 253 242 242 251 251 245 239 237 238 229 224 218 225 243 228 228 232 238 243 244 225 250 243 231 250 245 257 269 254 272 262 268 264 271 261 270 287 306 304 315 324 432 415 396
354 385 326 308 301 282 254 258 244 250 251 259 250 226 236 241 238 246 240 253 242 242 239 238 212 232 231 245 234 260 271 264 241 241 252 254 250 260 260 261 266 268 276 289 288 312 309 314 341 344 424 402 408 432
345 354 370 364 305 305 319 316 283 265 264 258 254 247 255 247 242 247 241 246 247 244 237 239 240 247 253 265 274 273 268 270 210 191 263 225 268 263 264 265 274 292 300 317 315 318 327 340 413 417 391 446 426 388
344 337 342 358 359 348 297 284 282 283 289 276 265 265 251 250 247 248 252 253 250 249 248 254 258 270 259 273 274 276 177 266 264 253 262 260 265 269 273 328 326 319 317 321 335 358 409 409 402 388 429 430 378 355
350 347 350 352 351 354 357 351 307 300 303 308 294 285 272 265 268 271 270 270 265 265 274 267 269 268 264 271 271 269 270 272 270 268 201 284 338 330 329 321 320 317 317 328 408 401 400 385 397 434 434 376 351 345
340 345 338 349 355 367 368 366 359 319 342 340 318 298 297 295 294 288 288 284 271 323 269 295 303 252 196 276 273 181 269 272 184 292 257 340 328 312 310 311 308 375 411 402 400 397 371 396 406 423 384 348 346 344
348 342 349 353 229 369 362 363 360 353 274 340 386 277 373 364 327 325 297 294 290 291 111 208 210 307 294 288 296 310 306 319 331 327 312 304 311 307 322 410 410 402 394 389 382 366 388 396 414 405 357 347 345 345
337 340 337 338 346 349 347 373 370 340 351 360 375 383 381 381 379 378 208 361 340 332 164 345 124 342 335 334 330 329 323 322 318 304 329 342 404 411 400 391 388 382 378 368 361 337 386 400 398 360 385 356 343 336
343 340 347 351 347 356 351 351 357 388 390 391 390 404 401 403 375 378 367 356 343 350 348 345 342 343 341 340 338 337 336 339 349 411 399 393 389 384 408 425 416 374 379 341 391 386 376 409 408 400 362 339 329 323
360 350 346 352 354 355 405 407 398 391 385 380 378 376 375 236 374 371 294 283 371 370 365 357 353 352 351 349 374 415 401 392 388 388 371 399 382 397 424 414 400 395 332 386 390 394 396 383 345 340 331 320 327 306
337 340 350 368 367 365 364 341 308 359 358 357 357 356 358 356 353 366 369 380 381 388 391 393 393 392 389 385 378 378 396 417 426 420 406 389 384 410 408 398 401 380 370 375 372 369 339 338 333 317 320 300 285 331
358 358 355 354 356 357 357 369 370 373 326 376 372 364 362 366 366 374 375 373 371 369 370 377 392 398 400 395 388 382 374 373 388 408 405 400 404 405 394 385 369 366 372 369 348 334 338 321 317 285 288 331 325 314
328 329 328 323 355 348 351 361 362 359 358 356 356 354 351 350 354 372 381 372 367 370 383 386 387 387 392 392 390 385 362 363 378 395 394 385 382 381 369 364 362 355 345 337 337 325 321 319 299 337 330 315 298 293
355 352 351 352 355 356 356 354 345 344 342 344 353 367 355 350 373 366 357 351 354 355 360 373 395 400 397 395 392 393 402 372 365 379 393 386 373 364 365 356 342 336 332 325 328 325 304 342 336 324 305 293 294 294
343 345 347 350 343 342 341 340 341 361 351 340 346 361 352 345 341 333 331 335 335 336 341 347 371 598 526 434 419 405 403 392 378 387 392 381 366 368 355 339 331 326 331 326 305 335 339 336 318 293 293 300 299 297
331 335 332 334 333 337 346 357 351 336 341 344 342 335 329 325 321 320 317 316 314 321 328 332 343 362 524 436 441 426 418 402 389 390 380 376 374 351 334 330 332 290 301 327 331 334 339 301 296 302 303 298 296 294
328 331 337 346 355 361 355 330 341 335 334 326 323 322 316 311 313 294 301 306 314 315 313 317 321 327 338 355 364 352 350 345 341 342 341 334 337 334 332 332 302 329 328 330 332 330 298 302 301 299 297 297 296 295

GFSWCAN_2pvu_pres_015.txt.gz
Presure
218 217 205 200 200 200 200 205 207 205 203 217 208 204 203 210 198 203 196 188 195 192 194 193 192 199 196 200 195 193 190 193 197 198 205 203 179 186 192 184 188 182 195 128 209 163 170 168 171 184 183 190 187 188
224 209 215 203 202 196 201 201 201 193 208 225 218 207 204 187 213 196 202 206 200 205 200 195 192 188 192 190 190 198 200 200 199 203 205 215 213 188 192 185 190 201 206 208 87 189 187 173 187 171 181 188 195 198
228 214 201 214 200 196 194 204 194 202 195 212 228 207 214 198 206 188 183 196 194 197 200 204 203 204 203 201 195 198 198 200 201 208 206 216 188 188 191 183 196 197 203 193 181 186 175 181 169 187 193 199 200 199
221 204 224 205 208 204 196 212 200 199 185 202 201 204 231 206 215 209 206 207 206 203 200 199 204 201 205 206 206 207 212 212 221 226 218 184 188 191 190 192 189 197 204 167 178 186 182 188 190 191 200 199 197 196
230 235 213 217 209 203 203 205 196 202 204 190 198 205 205 195 172 192 205 214 198 216 208 203 201 196 198 206 202 204 210 217 222 227 211 209 196 195 199 198 193 195 181 163 184 183 193 192 193 204 201 196 197 192
251 234 231 215 208 214 209 204 192 201 194 194 199 186 172 198 204 208 207 193 183 223 216 217 200 208 216 205 192 189 191 194 193 199 199 198 198 198 205 205 178 191 191 173 184 193 200 196 198 197 200 206 201 209
248 259 237 224 221 213 202 208 202 196 206 197 186 197 194 191 187 189 186 193 203 206 229 192 221 204 195 204 207 211 213 217 222 201 199 199 206 188 184 186 191 178 173 186 198 199 197 195 193 201 200 208 202 210
238 239 243 222 225 226 215 210 206 199 195 198 205 194 191 196 195 194 193 187 193 192 193 192 196 201 203 181 179 186 137 112 201 198 191 184 194 183 197 190 194 197 195 202 200 193 191 198 205 208 205 203 208 214
246 248 237 231 234 235 221 211 206 203 199 205 188 198 188 182 190 202 193 195 197 196 201 185 187 194 192 195 183 190 196 198 202 201 193 198 188 184 186 189 199 193 195 197 200 193 201 206 209 206 216 211 219 229
248 242 249 239 234 240 235 219 218 212 205 205 194 199 209 196 206 190 187 201 191 191 191 196 196 173 170 193 199 199 196 99 187 196 193 202 201 194 200 208 209 211 202 194 199 200 200 204 207 213 228 232 234 231
234 244 236 258 247 241 240 236 233 217 206 207 201 202 196 207 205 209 202 206 207 204 201 200 203 203 196 198 197 203 206 205 201 197 192 198 203 206 204 199 201 191 199 203 202 205 211 216 221 223 221 224 232 240
250 241 219 233 243 234 239 231 227 224 226 223 210 203 197 209 202 210 214 214 211 207 199 192 194 198 202 194 199 200 205 208 211 213 212 203 196 199 201 199 199 209 205 204 214 212 216 211 224 236 235 240 245 229
276 280 237 248 227 244 234 226 235 226 218 223 220 222 218 206 212 208 202 213 218 216 209 208 200 205 211 211 198 200 202 204 206 213 215 213 203 205 199 207 202 210 211 212 214 219 218 227 235 246 247 234 228 224
272 286 284 272 253 240 243 237 237 239 229 228 228 231 218 217 223 230 227 223 203 218 214 217 217 212 205 202 208 213 204 204 205 208 204 208 201 210 211 212 214 223 222 222 228 223 237 241 254 241 229 227 231 270
257 265 274 275 262 279 243 238 243 236 237 239 249 238 220 226 223 217 215 217 207 206 210 208 210 211 209 213 216 218 220 226 226 225 222 219 222 221 219 222 221 225 229 234 241 241 246 247 231 226 228 242 274 274
267 265 270 268 266 206 283 259 230 230 231 233 236 240 239 242 241 233 231 226 224 225 223 222 221 215 214 213 219 227 230 232 222 219 225 232 235 235 239 240 240 249 236 250 252 257 265 229 269 261 272 273 284 284
308 310 278 263 265 252 219 259 245 269 256 270 233 235 237 234 241 247 246 244 245 242 245 250 246 246 247 247 250 242 228 229 242 239 244 244 250 247 247 254 248 256 258 261 267 247 268 273 280 289 291 278 278 299
318 311 308 315 324 289 269 264 269 274 288 279 256 243 243 240 237 240 240 243 243 244 245 247 233 233 254 243 250 255 250 238 240 265 267 257 251 249 255 145 258 253 248 247 249 264 272 283 283 284 284 295 297 301
321 322 312 305 310 312 295 302 294 276 277 269 228 237 230 220 224 246 233 223 239 240 231 226 231 229 235 234 233 233 233 235 248 257 257 193 183 239 256 256 250 246 259 270 264 281 286 289 289 291 296 302 360 359
331 314 319 330 326 303 307 312 319 327 303 280 273 270 275 255 264 267 260 255 246 247 248 253 257 262 261 253 254 256 255 228 257 257 255 253 254 255 254 262 268 276 279 283 281 281 289 291 305 312 368 370 369 410
351 352 349 312 316 326 328 337 305 306 311 321 324 323 306 295 276 280 275 264 218 209 259 241 242 262 253 254 258 265 269 270 246 261 269 266 265 267 272 277 281 288 278 277 296 302 305 382 377 372 410 406 399 384
372 366 354 346 345 354 304 317 320 334 211 309 302 310 310 306 307 304 276 275 298 309 287 260 261 262 278 272 264 281 210 281 278 277 248 277 283 287 290 289 284 299 323 316 391 383 389 411 411 405 397 400 396 419
346 344 346 340 345 344 346 350 295 306 315 325 339 344 322 301 304 307 300 297 293 203 197 115 285 236 234 242 280 298 185 264 300 309 303 296 310 307 313 373 409 404 410 413 404 397 399 403 427 426 412 399 405 403
335 330 332 333 341 343 347 315 349 338 298 335 327 324 332 336 341 346 346 283 364 229 302 303 302 306 309 229 125 311 314 175 281 395 395 410 407 406 404 401 400 394 395 395 397 393 390 381 373 396 400 404 402 389
332 330 339 329 334 339 340 342 358 359 359 354 362 382 377 379 338 345 341 253 341 353 125 363 366 371 367 423 362 158 409 407 409 407 406 402 406 405 401 399 398 394 393 389 385 374 371 349 358 411 406 398 386 373
332 340 344 348 336 345 336 340 355 354 349 353 361 362 355 249 346 349 356 371 410 405 403 402 400 400 399 399 399 400 400 404 398 396 398 388 376 372 369 372 395 394 393 392 390 396 391 371 410 404 392 379 368 361
330 330 332 341 336 335 334 339 337 338 331 331 338 333 337 349 369 386 388 387 381 384 388 389 391 395 399 401 396 389 383 395 381 370 361 352 350 357 354 359 449 441 424 409 391 392 383 375 391 390 375 363 359 350
328 332 335 331 330 340 342 343 326 326 330 344 361 367 350 372 377 380 378 376 377 379 381 386 389 382 377 374 376 388 364 351 347 343 337 333 335 334 337 344 361 479 435 418 397 395 382 378 387 383 366 358 349 338
334 329 339 333 334 331 338 344 343 343 356 366 375 372 369 382 371 364 358 372 376 373 369 364 370 369 380 368 358 347 338 333 323 323 321 319 318 316 319 323 333 349 425 415 401 393 385 384 387 379 369 361 344 333
336 340 340 343 348 351 344 350 364 368 362 359 364 367 371 368 363 373 367 360 352 353 368 371 370 364 352 346 336 331 324 320 318 318 316 311 305 308 336 352 362 322 328 352 361 397 396 394 390 381 367 351 335 328
342 344 324 328 346 362 371 356 349 353 359 363 366 368 373 370 358 350 343 349 364 364 361 359 353 342 334 327 323 319 315 311 309 309 309 311 316 330 341 334 326 339 358 330 321 342 351 348 342 335 334 328 330 328
368 377 355 357 355 351 348 350 349 345 346 348 348 341 343 341 344 361 372 372 358 353 350 344 337 329 320 316 311 308 307 308 310 314 314 320 331 355 368 362 360 356 354 359 351 327 313 316 343 352 356 357 360 359
354 348 345 344 344 345 342 344 364 359 351 358 354 359 369 391 394 355 347 352 353 346 338 334 323 318 310 306 305 308 311 311 314 319 285 301 367 362 356 353 351 346 345 344 348 353 350 337 320 313 307 307 306 304